TimeAKST,TemperatureF,Dew PointF,Humidity,Sea Level PressureIn,VisibilityMPH,Wind Direction,Wind SpeedMPH,Gust SpeedMPH,PrecipitationIn,Events,Conditions,WindDirDegrees,DateUTC
12:16 AM,15.8,12.2,86,30.09,10.0,Calm,Calm,-,N/A,,Clear,0,2013-11-12 09:16:00
12:36 AM,14.0,10.4,86,30.10,10.0,Calm,Calm,-,N/A,,Clear,0,2013-11-12 09:36:00
12:56 AM,15.8,10.4,79,30.09,10.0,Calm,Calm,-,N/A,,Clear,0,2013-11-12 09:56:00
1:16 AM,15.8,10.4,79,30.09,10.0,Calm,Calm,-,N/A,,Clear,0,2013-11-12 10:16:00
1:36 AM,15.8,12.2,86,30.10,10.0,Calm,Calm,-,N/A,,Clear,0,2013-11-12 10:36:00
1:56 AM,12.2,8.6,85,30.10,10.0,Calm,Calm,-,N/A,,Clear,0,2013-11-12 10:56:00
2:16 AM,10.4,6.8,85,30.09,10.0,Calm,Calm,-,N/A,,Clear,0,2013-11-12 11:16:00
2:36 AM,10.4,6.8,85,30.08,10.0,Calm,Calm,-,N/A,,Clear,0,2013-11-12 11:36:00
2:56 AM,12.2,8.6,85,30.08,10.0,Calm,Calm,-,N/A,,Clear,0,2013-11-12 11:56:00
3:16 AM,10.4,6.8,85,30.09,10.0,Calm,Calm,-,N/A,,Clear,0,2013-11-12 12:16:00
3:36 AM,8.6,3.2,79,30.09,10.0,Calm,Calm,-,N/A,,Clear,0,2013-11-12 12:36:00
3:56 AM,8.6,3.2,79,30.09,10.0,Calm,Calm,-,N/A,,Clear,0,2013-11-12 12:56:00
4:16 AM,8.6,3.2,79,30.09,10.0,Calm,Calm,-,N/A,,Clear,0,2013-11-12 13:16:00
4:36 AM,8.6,5.0,85,30.08,10.0,Calm,Calm,-,N/A,,Clear,0,2013-11-12 13:36:00
4:56 AM,8.6,3.2,79,30.08,10.0,Calm,Calm,-,N/A,,Clear,0,2013-11-12 13:56:00
5:16 AM,6.8,1.4,79,30.08,10.0,Calm,Calm,-,N/A,,Clear,0,2013-11-12 14:16:00
5:36 AM,6.8,1.4,79,30.08,10.0,Calm,Calm,-,N/A,,Clear,0,2013-11-12 14:36:00
5:56 AM,6.8,3.2,85,30.09,10.0,Calm,Calm,-,N/A,,Clear,0,2013-11-12 14:56:00
6:16 AM,6.8,-0.4,72,30.09,10.0,Calm,Calm,-,N/A,,Clear,0,2013-11-12 15:16:00
6:36 AM,6.8,3.2,85,30.10,10.0,Calm,Calm,-,N/A,,Clear,0,2013-11-12 15:36:00
6:56 AM,6.8,1.4,79,30.10,10.0,Calm,Calm,-,N/A,,Clear,0,2013-11-12 15:56:00
7:16 AM,6.8,3.2,85,30.10,10.0,Calm,Calm,-,N/A,,Clear,0,2013-11-12 16:16:00
7:36 AM,6.8,1.4,79,30.10,10.0,Calm,Calm,-,N/A,,Clear,0,2013-11-12 16:36:00
7:56 AM,8.6,3.2,79,30.10,10.0,Calm,Calm,-,N/A,,Clear,0,2013-11-12 16:56:00
8:16 AM,6.8,1.4,79,30.10,10.0,Calm,Calm,-,N/A,,Clear,0,2013-11-12 17:16:00
8:36 AM,6.8,1.4,79,30.11,10.0,Calm,Calm,-,N/A,,Clear,0,2013-11-12 17:36:00
8:56 AM,6.8,-0.4,72,30.11,10.0,Calm,Calm,-,N/A,,Clear,0,2013-11-12 17:56:00
9:16 AM,6.8,6.8,100,30.11,10.0,Calm,Calm,-,N/A,,Clear,0,2013-11-12 18:16:00
9:36 AM,6.8,-0.4,72,30.11,10.0,Calm,Calm,-,N/A,,Clear,0,2013-11-12 18:36:00
9:56 AM,6.8,1.4,79,30.12,10.0,Calm,Calm,-,N/A,,Clear,0,2013-11-12 18:56:00
10:16 AM,6.8,3.2,85,30.12,10.0,Calm,Calm,-,N/A,,Clear,0,2013-11-12 19:16:00
10:36 AM,8.6,6.8,92,30.12,10.0,Calm,Calm,-,N/A,,Clear,0,2013-11-12 19:36:00
10:56 AM,8.6,6.8,92,30.12,10.0,Calm,Calm,-,N/A,,Clear,0,2013-11-12 19:56:00
11:16 AM,10.4,8.6,92,30.12,10.0,Calm,Calm,-,N/A,,Clear,0,2013-11-12 20:16:00
11:36 AM,12.2,10.4,92,30.12,10.0,Calm,Calm,-,N/A,,Clear,0,2013-11-12 20:36:00
11:56 AM,14.0,10.4,86,30.12,10.0,Calm,Calm,-,N/A,,Clear,0,2013-11-12 20:56:00
12:16 PM,15.8,10.4,79,30.12,10.0,Calm,Calm,-,N/A,,Clear,0,2013-11-12 21:16:00
12:36 PM,17.6,12.2,79,30.13,10.0,Calm,Calm,-,N/A,,Clear,0,2013-11-12 21:36:00
12:56 PM,17.6,15.8,93,30.12,10.0,Calm,Calm,-,N/A,,Clear,0,2013-11-12 21:56:00
1:16 PM,19.4,15.8,86,30.12,10.0,Calm,Calm,-,N/A,,Clear,0,2013-11-12 22:16:00
1:36 PM,21.2,15.8,80,30.13,10.0,Calm,Calm,-,N/A,,Clear,0,2013-11-12 22:36:00
1:56 PM,21.2,15.8,80,30.12,10.0,Calm,Calm,-,N/A,,Clear,0,2013-11-12 22:56:00
2:16 PM,21.2,15.8,80,30.13,10.0,Calm,Calm,-,N/A,,Clear,0,2013-11-12 23:16:00
2:36 PM,21.2,15.8,80,30.13,10.0,Calm,Calm,-,N/A,,Clear,0,2013-11-12 23:36:00
2:56 PM,21.2,14.0,74,30.12,10.0,Calm,Calm,-,N/A,,Clear,0,2013-11-12 23:56:00
3:16 PM,21.2,15.8,80,30.12,10.0,East,3.5,-,N/A,,Clear,100,2013-11-13 00:16:00
3:36 PM,21.2,14.0,74,30.12,10.0,Calm,Calm,-,N/A,,Clear,0,2013-11-13 00:36:00
3:56 PM,21.2,15.8,80,30.12,10.0,Calm,Calm,-,N/A,,Clear,0,2013-11-13 00:56:00
4:16 PM,15.8,14.0,93,30.12,10.0,Calm,Calm,-,N/A,,Clear,0,2013-11-13 01:16:00
4:36 PM,15.8,12.2,86,30.12,10.0,Calm,Calm,-,N/A,,Clear,0,2013-11-13 01:36:00
4:56 PM,14.0,10.4,86,30.12,10.0,Calm,Calm,-,N/A,,Clear,0,2013-11-13 01:56:00
5:16 PM,12.2,8.6,85,30.12,10.0,Calm,Calm,-,N/A,,Clear,0,2013-11-13 02:16:00
5:36 PM,12.2,8.6,85,30.12,10.0,Calm,Calm,-,N/A,,Clear,0,2013-11-13 02:36:00
5:56 PM,12.2,8.6,85,30.12,10.0,Calm,Calm,-,N/A,,Clear,0,2013-11-13 02:56:00
6:16 PM,12.2,8.6,85,30.12,10.0,East,3.5,-,N/A,,Clear,90,2013-11-13 03:16:00
6:36 PM,12.2,10.4,92,30.12,10.0,Calm,Calm,-,N/A,,Clear,0,2013-11-13 03:36:00
6:56 PM,10.4,5.0,79,30.12,10.0,Calm,Calm,-,N/A,,Clear,0,2013-11-13 03:56:00
7:16 PM,10.4,3.2,73,30.13,10.0,Calm,Calm,-,N/A,,Clear,0,2013-11-13 04:16:00
7:36 PM,10.4,6.8,85,30.13,10.0,Calm,Calm,-,N/A,,Clear,0,2013-11-13 04:36:00
7:56 PM,10.4,8.6,92,30.14,10.0,East,4.6,-,N/A,,Clear,90,2013-11-13 04:56:00
8:16 PM,12.2,10.4,92,30.13,10.0,East,4.6,-,N/A,,Clear,90,2013-11-13 05:16:00
8:36 PM,14.0,10.4,86,30.14,10.0,East,3.5,-,N/A,,Clear,80,2013-11-13 05:36:00
8:56 PM,14.0,10.4,86,30.14,10.0,East,3.5,-,N/A,,Clear,90,2013-11-13 05:56:00
9:16 PM,15.8,10.4,79,30.13,10.0,East,4.6,-,N/A,,Clear,80,2013-11-13 06:16:00
9:36 PM,15.8,10.4,79,30.13,10.0,East,4.6,-,N/A,,Partly Cloudy,80,2013-11-13 06:36:00
9:56 PM,15.8,12.2,86,30.13,10.0,East,3.5,-,N/A,,Mostly Cloudy,80,2013-11-13 06:56:00
10:16 PM,15.8,12.2,86,30.13,10.0,ENE,3.5,-,N/A,,Mostly Cloudy,70,2013-11-13 07:16:00
10:36 PM,15.8,12.2,86,30.13,10.0,East,3.5,-,N/A,,Mostly Cloudy,80,2013-11-13 07:36:00
10:56 PM,15.8,12.2,86,30.12,10.0,East,4.6,-,N/A,,Overcast,90,2013-11-13 07:56:00
11:16 PM,17.6,12.2,79,30.12,10.0,East,4.6,-,N/A,,Overcast,100,2013-11-13 08:16:00
11:36 PM,17.6,12.2,79,30.12,10.0,East,4.6,-,N/A,,Overcast,90,2013-11-13 08:36:00
11:56 PM,17.6,12.2,79,30.12,10.0,East,4.6,-,N/A,,Overcast,90,2013-11-13 08:56:00